This is the latest recevied weather packets stored in our database for station/object CQ0XSM-11. If no packets are shown the sender has not sent any weather packets the latest 10 day(s).
| Time | Temp. | Humidity | Pressure | Rain* | Wind** | Luminosity | Snow |
|---|---|---|---|---|---|---|---|
| 1777975130 | 11.67° C | 78% | 997.7 hPa | 0 mm | - | - | - |
| 1777974837 | 11.67° C | 73% | 997.6 hPa | 0 mm | - | - | - |
| 1777974523 | 11.67° C | 74% | 997.7 hPa | 0 mm | - | - | - |
| 1777974256 | 11.67° C | 74% | 997.7 hPa | 0 mm | - | - | - |
| 1777973910 | 12.22° C | 74% | 997.7 hPa | 0 mm | - | - | - |
| 1777973620 | 12.78° C | 70% | 997.7 hPa | 0 mm | - | - | - |
| 1777973310 | 12.22° C | 77% | 997.7 hPa | 0 mm | - | - | - |
| 1777973017 | 11.67° C | 77% | 997.7 hPa | 0 mm | - | - | - |
| 1777972704 | 11.11° C | 80% | 997.7 hPa | 0 mm | - | - | - |
| 1777972432 | 11.11° C | 82% | 997.8 hPa | 0 mm | - | - | - |
| 1777972091 | 10.56° C | 85% | 997.7 hPa | 0 mm | - | - | - |
| 1777971800 | 10.56° C | 84% | 997.7 hPa | 0 mm | - | - | - |
| 1777971500 | 11.11° C | 83% | 997.7 hPa | 0 mm | - | - | - |
| 1777971199 | 11.11° C | 87% | 997.7 hPa | 0 mm | - | - | - |
| 1777970897 | 11.11° C | 93% | 997.7 hPa | 0 mm | - | - | - |
| 1777970601 | 10.56° C | 94% | 997.6 hPa | 0 mm | - | - | - |
| 1777970277 | 10.56° C | 93% | 997.7 hPa | 0 mm | - | - | - |
| 1777969993 | 10.56° C | 92% | 997.7 hPa | 0 mm | - | - | - |
| 1777969694 | 10.56° C | 94% | 997.7 hPa | 0 mm | - | - | - |
| 1777969388 | 10.56° C | 99% | 997.7 hPa | 0 mm | - | - | - |
| 1777969065 | 10.56° C | 100% | 997.6 hPa | 0 mm | - | - | - |
| 1777968798 | 10.56° C | 100% | 997.6 hPa | 0 mm | - | - | - |
| 1777968459 | 10° C | 100% | 997.5 hPa | 0 mm | - | - | - |
| 1777968212 | 9.44° C | 100% | 997.6 hPa | 0 mm | - | - | - |
| 1777967246 | 8.89° C | 100% | 997.5 hPa | 0 mm | - | - | - |
* Rain since midnight (hover to see other rain measurements)
** Current wind speed in m/s (hover to see current wind gust speed)